カタログに戻る

BREEZE-M R/B

運用中HEO
NORAD 38247·ROCKET BODY·🇷🇺 Russia

打ち上げ Apr 23, 2012 から Baikonur Cosmodrome

Loading…

次のパス (今後24時間)

TLE

最新Source: Space-Track

元期: Sep 14, 2026, 09:09 UTC

1 38247U 12016C   26257.38181206 -.00000043  00000-0  00000-0 0  9993
2 38247  24.0503 217.2365 6155105  21.7511 355.7147  2.19984530115679

AllMySatでBREEZE-M R/Bをリアルタイム追跡

Download on the App Store